This demonstration page uses our WeatherBlox Daily Observations layout. Learn more.

Left ArrowRight Arrow

Hourly Observations for May 15, 2022

Temp ( °F °C ) Dew Point ( °F °C ) Humidity (%) Winds ( mph kmh ) Pressure ( in mb ) Visibility ( mi km ) Precip ( " mm )
12:52 am 00:52 Clear 66 18.9 62 16.7 87 87 Calm 29.91 1013 10 16 0.00 0.00
1:52 am 01:52 Clear 67 19.4 62 16.7 84 84 NE 6 9 29.88 1012 10 16 0.00 0.00
2:52 am 02:52 Clear 63 17.2 60 15.6 90 90 Calm 29.90 1012 10 16 0.00 0.00
3:52 am 03:52 Clear 64 17.8 61 16.1 90 90 SSE 5 7 29.93 1013 10 16 0.00 0.00
4:52 am 04:52 Clear 62 16.7 61 16.1 96 96 S 6 9 29.93 1014 9 14 0.00 0.00
5:52 am 05:52 Mostly Clear 64 17.8 61 16.1 90 90 SSE 3 6 29.93 1014 10 16 0.00 0.00
6:52 am 06:52 Sunny 64 17.8 62 16.7 93 93 SE 6 9 29.92 1013 9 14 0.00 0.00
7:52 am 07:52 Mostly Cloudy 70 21.1 64 17.8 82 82 SE 7 11 29.90 1013 10 16 0.00 0.00
8:52 am 08:52 Sunny 75 23.9 64 17.8 69 69 ESE 5 7 29.90 1013 10 16 0.00 0.00
9:52 am 09:52 Sunny 78 25.6 64 17.8 62 62 SSW 5 7 29.90 1013 10 16 0.00 0.00
10:52 am 10:52 Sunny 76 24.4 64 17.8 67 67 W 7 11 29.94 1014 10 16 0.00 0.00
11:23 am 11:23 Cloudy with Nearby Thunderstorms 73 22.8 67 19.4 81 81 NNW 8 13 29.95 1014 9 14 0.00 0.00
11:38 am 11:38 Cloudy with Light Rain 71 21.7 66 18.9 84 84 NNW 14 22 29.98 1015 7 11 0.01 0.25
11:52 am 11:52 Cloudy with Light Rain 67 19.4 63 17.2 87 87 NNW 20 31 30.01 1016 6 10 0.03 0.76
12:52 pm 12:52 Sunny 64 17.8 61 16.1 90 90 N 12 19 29.98 1015 10 16 0.00 0.00
1:20 pm 13:20 Mostly Cloudy 64 17.8 61 16.1 90 90 N 18 30 30.01 1016 10 16 0.00 0.00
1:41 pm 13:41 Mostly Cloudy 66 18.9 61 16.1 84 84 NE 17 28 30.00 1016 10 16 0.00 0.00
1:52 pm 13:52 Mostly Sunny 67 19.4 61 16.1 81 81 NE 15 24 29.99 1016 10 16 0.00 0.00
2:52 pm 14:52 Cloudy with Light Rain 66 18.9 62 16.7 87 87 E 7 11 29.95 1014 10 16 0.02 0.51
3:52 pm 15:52 Cloudy with Light Rain 66 18.9 63 17.2 90 90 S 9 15 29.91 1013 10 16 0.00 0.00
4:52 pm 16:52 Mostly Cloudy 66 18.9 63 17.2 90 90 SSE 8 13 29.87 1012 10 16 0.00 0.00
5:52 pm 17:52 Sunny 72 22.2 64 17.8 76 76 Calm 29.85 1011 10 16 0.00 0.00
6:52 pm 18:52 Mostly Cloudy 70 21.1 64 17.8 82 82 NW 6 9 29.88 1012 10 16 0.00 0.00
7:52 pm 19:52 Cloudy 69 20.6 62 16.7 78 78 NW 10 17 29.90 1013 10 16 0.00 0.00
8:52 pm 20:52 Mostly Cloudy 65 18.3 62 16.7 90 90 NNW 6 9 29.93 1014 10 16 0.00 0.00
9:52 pm 21:52 Clear 64 17.8 61 16.1 90 90 WNW 3 6 29.94 1014 10 16 0.00 0.00
10:52 pm 22:52 Mostly Cloudy 62 16.7 61 16.1 96 96 WNW 3 6 29.97 1015 10 16 0.00 0.00
11:52 pm 23:52 Clear 61 16.1 59 15 93 93 NW 5 7 29.98 1015 10 16 0.00 0.00

Powered by AerisWeather